Location: D�nning
(49.2479°N, 12.8491°E)
Time: 04:50:06
(UTC+00:00)

USA 238 DEB - Pass Details

Date: 18 September 2020
Orbit: 1004 x 1208 km, 63.4° (Epoch: 28 October)

Event Time Altitude Azimuth Distance (km) Brightness Sun altitude
Rises 19:32:30 0° 317° (NW) 3,943 8.0 -22.2°
Reaches altitude 10° 19:35:10 10° 314° (NW) 3,010 7.1 -22.6°
Maximum altitude 19:42:16 64° 235° (SW) 1,274 4.1 -23.6°
Enters shadow 19:45:40 34° 167° (SSE) 1,840 4.5 -24.0°
